Location: B�hl
(48.6968°N, 8.1352°E)
Time: 21:30:37
(UTC+00:00)

Resurs 1-3 - Pass Details

Date: 08 March 2021
Orbit: 629 x 633 km, 97.9° (Epoch: 14 April)

Event Time Altitude Azimuth Distance (km) Brightness Sun altitude
Exits shadow 19:45:28 63° 193° (SSW) 711 3.7 -24.0°
Maximum altitude 19:46:07 77° 257° (WSW) 655 3.6 -24.1°
Drops below altitude 10° 19:50:32 10° 344° (NNW) 2,028 6.7 -24.8°
Sets 19:52:45 0° 346° (NNW) 2,941 7.6 -25.1°
